TimeEDT,TemperatureF,Dew PointF,Humidity,Sea Level PressureIn,VisibilityMPH,Wind Direction,Wind SpeedMPH,Gust SpeedMPH,PrecipitationIn,Events,Conditions,WindDirDegrees,DateUTC
12:13 AM,60.4,55.0,82,29.94,10.0,SE,6.9,-,N/A,,Overcast,130,2012-10-24 04:13:00
12:33 AM,60.3,55.0,83,29.94,10.0,ESE,9.2,-,N/A,,Overcast,120,2012-10-24 04:33:00
12:53 AM,60.4,55.4,83,29.94,10.0,ESE,6.9,-,N/A,,Overcast,120,2012-10-24 04:53:00
1:13 AM,60.4,55.4,83,29.94,10.0,SE,6.9,-,N/A,,Overcast,140,2012-10-24 05:13:00
1:53 AM,60.6,55.8,84,29.94,10.0,SE,8.1,-,N/A,,Overcast,130,2012-10-24 05:53:00
2:13 AM,60.6,55.9,85,29.94,10.0,SE,5.8,-,N/A,,Overcast,130,2012-10-24 06:13:00
2:34 AM,60.8,55.9,84,29.94,10.0,SE,5.8,-,N/A,,Overcast,130,2012-10-24 06:34:00
2:54 AM,60.8,55.9,84,29.93,10.0,ESE,5.8,-,N/A,,Overcast,120,2012-10-24 06:54:00
3:34 AM,61.3,56.3,83,29.94,10.0,SE,8.1,-,N/A,,Overcast,140,2012-10-24 07:34:00
3:54 AM,61.7,56.3,82,29.93,10.0,SE,5.8,-,N/A,,Overcast,140,2012-10-24 07:54:00
4:14 AM,61.7,56.5,83,29.92,10.0,SSE,8.1,-,N/A,,Overcast,160,2012-10-24 08:14:00
4:34 AM,61.7,56.7,84,29.92,10.0,SE,6.9,-,N/A,,Overcast,140,2012-10-24 08:34:00
4:54 AM,61.7,56.7,84,29.91,10.0,SE,8.1,-,N/A,,Overcast,140,2012-10-24 08:54:00
5:15 AM,61.7,57.2,85,29.92,10.0,SE,8.1,-,N/A,,Overcast,140,2012-10-24 09:15:00
5:55 AM,62.1,57.6,85,29.93,7.0,Calm,Calm,-,N/A,,Overcast,0,2012-10-24 09:55:00
6:15 AM,62.6,57.7,84,29.93,7.0,SE,5.8,-,N/A,,Overcast,130,2012-10-24 10:15:00
6:35 AM,62.6,58.1,85,29.93,7.0,SE,8.1,-,N/A,,Overcast,140,2012-10-24 10:35:00
6:55 AM,62.2,57.7,85,29.93,7.0,SE,4.6,-,N/A,,Mostly Cloudy,140,2012-10-24 10:55:00
7:15 AM,61.9,57.7,86,29.93,7.0,SE,5.8,-,N/A,,Mostly Cloudy,140,2012-10-24 11:15:00
7:35 AM,61.9,57.7,86,29.93,7.0,SE,6.9,-,N/A,,Mostly Cloudy,140,2012-10-24 11:35:00
7:56 AM,61.9,57.9,87,29.93,7.0,SSE,5.8,-,N/A,,Overcast,150,2012-10-24 11:56:00
8:11 AM,62.1,58.1,87,29.93,7.0,SE,8.1,-,N/A,,Overcast,140,2012-10-24 12:11:00
8:31 AM,62.1,58.1,87,29.93,5.0,SSE,8.1,-,N/A,,Overcast,150,2012-10-24 12:31:00
8:51 AM,62.1,58.1,87,29.93,5.0,SE,4.6,-,N/A,,Overcast,140,2012-10-24 12:51:00
9:11 AM,62.6,58.3,86,29.93,5.0,SE,5.8,-,N/A,,Haze,140,2012-10-24 13:11:00
9:31 AM,62.6,58.3,86,29.93,5.0,SSE,3.5,-,N/A,,Haze,150,2012-10-24 13:31:00
9:51 AM,62.6,58.5,86,29.94,5.0,SSE,5.8,-,N/A,,Overcast,150,2012-10-24 13:51:00
10:11 AM,62.8,58.5,86,29.94,5.0,South,5.8,-,N/A,,Overcast,180,2012-10-24 14:11:00
10:31 AM,63.1,58.8,86,29.94,5.0,South,4.6,-,N/A,,Overcast,170,2012-10-24 14:31:00
10:51 AM,63.7,59.0,85,29.93,5.0,SE,8.1,-,N/A,,Haze,130,2012-10-24 14:51:00
11:12 AM,64.9,59.4,82,29.94,7.0,South,5.8,-,N/A,,Overcast,170,2012-10-24 15:12:00
11:32 AM,66.0,59.4,79,29.94,10.0,SSE,6.9,-,N/A,,Overcast,160,2012-10-24 15:32:00
11:52 AM,67.3,59.7,77,29.93,10.0,SSE,9.2,-,N/A,,Scattered Clouds,160,2012-10-24 15:52:00
12:12 PM,68.7,59.9,73,29.93,10.0,SE,9.2,-,N/A,,Scattered Clouds,140,2012-10-24 16:12:00
12:32 PM,70.2,60.3,71,29.93,10.0,South,6.9,-,N/A,,Scattered Clouds,180,2012-10-24 16:32:00
12:52 PM,70.7,60.3,69,29.93,10.0,SSE,9.2,-,N/A,,Mostly Cloudy,150,2012-10-24 16:52:00
1:12 PM,71.6,60.4,68,29.92,10.0,SE,9.2,-,N/A,,Overcast,140,2012-10-24 17:12:00
1:32 PM,72.7,60.8,66,29.90,10.0,SE,9.2,-,N/A,,Scattered Clouds,140,2012-10-24 17:32:00
1:53 PM,72.7,60.8,66,29.90,10.0,South,6.9,-,N/A,,Scattered Clouds,170,2012-10-24 17:53:00
2:13 PM,73.0,60.8,65,29.90,10.0,SSE,6.9,-,N/A,,Clear,160,2012-10-24 18:13:00
2:33 PM,74.3,61.0,63,29.89,10.0,SSE,6.9,-,N/A,,Scattered Clouds,160,2012-10-24 18:33:00
2:53 PM,70.7,60.1,69,29.89,10.0,WSW,8.1,-,N/A,,Scattered Clouds,250,2012-10-24 18:53:00
3:13 PM,72.1,60.8,67,29.88,10.0,ESE,10.4,-,N/A,,Scattered Clouds,120,2012-10-24 19:13:00
3:33 PM,73.8,61.3,65,29.88,10.0,South,6.9,-,N/A,,Mostly Cloudy,180,2012-10-24 19:33:00
3:53 PM,74.3,61.7,65,29.88,10.0,SSE,6.9,-,N/A,,Overcast,160,2012-10-24 19:53:00
4:13 PM,74.3,61.9,65,29.87,10.0,SSE,6.9,-,N/A,,Overcast,160,2012-10-24 20:13:00
4:34 PM,74.3,62.1,65,29.87,10.0,SE,5.8,-,N/A,,Overcast,140,2012-10-24 20:34:00
4:54 PM,74.3,62.2,66,29.87,10.0,SSE,5.8,-,N/A,,Overcast,150,2012-10-24 20:54:00
5:14 PM,73.2,61.5,67,29.87,10.0,WSW,5.8,-,N/A,,Overcast,250,2012-10-24 21:14:00
5:34 PM,67.8,59.5,75,29.87,10.0,NW,3.5,-,N/A,,Overcast,320,2012-10-24 21:34:00
5:54 PM,66.7,59.4,77,29.87,10.0,NW,3.5,-,N/A,,Overcast,320,2012-10-24 21:54:00
6:14 PM,66.7,59.4,77,29.87,10.0,Calm,Calm,-,N/A,,Overcast,0,2012-10-24 22:14:00
6:34 PM,66.4,59.2,78,29.87,10.0,Calm,Calm,-,N/A,,Overcast,0,2012-10-24 22:34:00
6:54 PM,66.2,59.2,78,29.87,10.0,Calm,Calm,-,N/A,,Overcast,0,2012-10-24 22:54:00
7:15 PM,65.5,59.4,81,29.87,10.0,Calm,Calm,-,N/A,,Mostly Cloudy,0,2012-10-24 23:15:00
7:35 PM,64.6,59.2,83,29.87,10.0,Calm,Calm,-,N/A,,Mostly Cloudy,0,2012-10-24 23:35:00
7:55 PM,64.9,59.4,82,29.88,10.0,Calm,Calm,-,N/A,,Overcast,0,2012-10-24 23:55:00
8:15 PM,66.0,59.4,79,29.87,10.0,Calm,Calm,-,N/A,,Overcast,0,2012-10-25 00:15:00
8:35 PM,66.6,60.1,80,29.86,10.0,SSE,5.8,-,N/A,,Scattered Clouds,160,2012-10-25 00:35:00
8:55 PM,69.8,61.0,73,29.85,10.0,SSE,6.9,-,N/A,,Clear,150,2012-10-25 00:55:00
9:15 PM,69.6,60.8,73,29.85,10.0,SSE,6.9,-,N/A,,Clear,150,2012-10-25 01:15:00
9:31 PM,69.8,61.0,73,29.85,10.0,SSE,6.9,-,N/A,,Scattered Clouds,150,2012-10-25 01:31:00
9:51 PM,70.7,61.7,73,29.85,10.0,SSE,8.1,-,N/A,,Overcast,160,2012-10-25 01:51:00
10:11 PM,71.6,61.9,71,29.85,10.0,SSE,10.4,-,N/A,,Overcast,160,2012-10-25 02:11:00
10:31 PM,71.8,61.9,71,29.85,10.0,SSE,11.5,17.3,N/A,,Overcast,160,2012-10-25 02:31:00
10:51 PM,71.6,61.7,71,29.84,10.0,SSE,11.5,18.4,N/A,,Mostly Cloudy,160,2012-10-25 02:51:00
11:11 PM,71.8,61.7,70,29.84,10.0,SSE,10.4,-,N/A,,Mostly Cloudy,160,2012-10-25 03:11:00
11:31 PM,72.1,61.9,70,29.83,10.0,SSE,10.4,17.3,N/A,,Mostly Cloudy,160,2012-10-25 03:31:00
11:52 PM,73.4,62.1,68,29.83,10.0,South,12.7,17.3,N/A,,Overcast,170,2012-10-25 03:52:00